Other Public Products
Issued by NWS Grand Forks, ND

Home | Current Version | Previous Version | Graphics & Text | Print | Product List | Glossary On
Versions: 1 2 3 4 5 6 7 8 9 10 11 12 13 14 15 16 17 18 19 20 21 22 23 24 25 26 27 28 29 30 31 32 33 34 35 36 37 38 39 40 41 42 43 44 45 46 47 48 49 50
000
FPUS83 KFGF 270131
OPUFGF
PRAIRIE TO PINES WEATHER ROUNDUP
NATIONAL WEATHER SERVICE EASTERN NORTH DAKOTA/GRAND FORKS ND
800 PM CDT WED JUL 26 2017

 **SATELLITE DATA USED TO AUGMENT SKY COVER AT AUTOMATED STATIONS**
 *****  WEATHER ACROSS EASTERN NORTH DAKOTA  *****

CITY           SKY/WX    TMP DP  RH WIND       PRES   REMARKS
GRAND FORKS    FAIR      79  62  56 N9        30.05S
GRAND FORKS AF FAIR      76  59  55 N7        30.07S
GRAND CITY NWS NOT AVBL
BUXTON           N/A     76  63  64 N2          N/A
DEVILS LAKE    FAIR      77  57  50 NE7       30.11S
FARGO          FAIR      78  60  53 N8        30.05S
WAHPETON ARPT  FAIR      75  59  57 N7        30.05S
$$

 *****  WEATHER ACROSS CENTRAL AND WESTERN NORTH DAKOTA  *****

CITY           SKY/WX    TMP DP  RH WIND       PRES   REMARKS
JAMESTOWN      FAIR      77  57  50 N7        30.09S
BISMARCK       FAIR      83  50  31 E9        30.09S
MINOT          FAIR      81  53  37 E9        30.10S
MINOT AFB      FAIR      80  53  38 E9        30.09S
GARRISON         N/A     80  52  37 E8        30.10S
WILLISTON      FAIR      89  45  21 S3        30.05F
DICKINSON      FAIR      81  52  36 SE8       30.07S
HETTINGER      FAIR      86  50  28 SE9       30.10F
$$

 *****  OTHER OBSERVATIONS NORTHEAST NORTH DAKOTA  *****

CITY           SKY/WX    TMP DP  RH WIND       PRES   REMARKS
WALHALLA       NOT AVBL
LANGDON        FAIR      75  63  64 N5        30.11F
CAVALIER       FAIR      75  63  64 NW3       30.06S
GRAFTON        FAIR      75  61  60 N5        30.08S
CANDO          NOT AVBL
FORT TOTTEN    NOT AVBL
ROLLA            N/A     73  63  68 N5        30.13S
RUGBY          NOT AVBL
 ***** THE ABOVE OBSERVATIONS ARE NON NWS ARE NOT QUALITY
        CONTROLLED AND MAY MIS-REPORT RAIN FOR SNOW...
$$

 *****  OTHER OBSERVATIONS SOUTHEAST NORTH DAKOTA *****

CITY           SKY/WX    TMP DP  RH WIND       PRES   REMARKS
COOPERSTOWN    FAIR      75  64  69 N6        30.10S
VALLEY CITY    FAIR      75  61  60 NE5       30.10S
OAKES          NOT AVBL
GWINNER        CLEAR     75  63  64 CALM      30.07S
SHEYENNE NWR     N/A     80  60  50 N7        29.95
BUFFALO          N/A     74  53  46 E5          N/A
WYNDMERE       NOT AVBL
 ***** THE ABOVE OBSERVATIONS ARE NON NWS ARE NOT QUALITY
       CONTROLLED AND MAY MIS-REPORT RAIN FOR SNOW...
$$

  *****  WEATHER ACROSS NORTHERN MINNESOTA  *****

CITY           SKY/WX    TMP DP  RH WIND       PRES   REMARKS
FLAG ISLAND    FAIR      75  59  57 NW9       30.02R
WARROAD        FAIR      75  63  64 W3        30.04S
ROSEAU         FAIR      75  64  69 W3        30.05R
HALLOCK        FAIR      75  63  64 NW3       30.06R
THF RVR FALLS  FAIR      76  61  59 NW8       30.07R
HALSTAD          N/A     74  64  73 N6          N/A
FOSSTON        FAIR      73  61  64 NW5       30.07S
BAUDETTE       FAIR      75  61  61 NW3       30.02S
WASKISH        FAIR      75  59  57 N3        30.04R
CROOKSTON      FAIR      75  64  69 N5        30.06S
$$
  *****  WEATHER ACROSS CENTRAL AND WEST MINNESOTA  *****

CITY           SKY/WX    TMP DP  RH WIND       PRES   REMARKS
BEMIDJI        FAIR      74  58  58 NW6       30.05S
PARK RAPIDS    FAIR      76  58  53 NW9       30.05R
WADENA         FAIR      73  61  64 N6        30.05R
DETROIT LAKES  FAIR      73  61  64 NW6       30.07S
MOORHEAD       FAIR      75  61  60 N5        30.06S
FERGUS FALLS   FAIR      75  63  64 N6        30.04S
ELBOW LAKE     FAIR      75  63  65 NW7       30.06S
MORRIS MN      FAIR      75  63  64 N5        30.04S
STAPLES        FAIR      75  59  57 N5        30.04R
WHEATON        FAIR      75  61  60 CALM      30.07R
$$
  *****  WEATHER ELSEWHERE ACROSS MINNESOTA  *****

CITY           SKY/WX    TMP DP  RH WIND       PRES   REMARKS
DULUTH         FAIR      75  61  61 NW6       30.00R
INTRNTL FALLS  FAIR      74  60  61 NW5       30.01R
ELY            FAIR      73  55  53 CALM      30.01S
CLOQUET        FAIR      75  57  53 NW5       30.01R
BRAINERD       FAIR      77  60  55 N7        30.03R
HIBBING        FAIR      73  59  61 N6        30.01R
ALEXANDRIA     FAIR      76  62  62 N8        30.06S
SAINT CLOUD    FAIR      77  64  64 N5        30.01R
MINNEAPOLIS    FAIR      80  60  50 N9        29.98R
$$

  *****  WEATHER ACROSS SOUTH DAKOTA  *****

CITY           SKY/WX    TMP DP  RH WIND       PRES   REMARKS
SIOUX FALLS    FAIR      78  63  59 NE9       30.05S
BROOKINGS      FAIR      76  62  62 NE7       30.07S
WATERTOWN      FAIR      76  60  57 N7        30.07R
HURON          FAIR      80  61  52 NE7       30.06S
SISSETON         N/A     80  64  58 N6        30.05S
ABERDEEN       FAIR      80  61  52 NE6       30.07S
MITCHELL       FAIR      80  63  55 NE6       30.06S
PIERRE         FAIR      86  53  32 NE10      30.06S
MOBRIDGE       FAIR      84  61  45 NE6       30.06F
RAPID CITY     FAIR      84  51  31 SE14      30.12F
$$

  *****  SOME WEATHER IN NEARBY STATES *****

CITY           SKY/WX    TMP DP  RH WIND       PRES   REMARKS
GLASGOW MT     FAIR      90  43  19 E7        29.99F
GREAT FALLS MT FAIR      90  34  13 E9        30.00F
CHEYENNE WY    CLOUDY    69  55  60 NE13      30.30S
SCOTTSBLUFF NE PTSUNNY   81  58  45 NE10      30.17S
OMAHA NE       MOCLDY    77  73  87 N3        29.98S
DES MOINES IA  LGT RAIN  76  73  91 W5        29.97R
DAVENPORT IA   CLOUDY    73  70  90 CALM      29.98R
CHICAGO IL     CLOUDY    80  70  71 S9        29.97R
EAU CLAIRE WI  FAIR      77  66  68 N3        29.96R
LA CROSSE WI   FAIR      80  72  76 NW6       29.95R
$$

  *****  SOME NATIONAL WEATHER *****

CITY           SKY/WX    TMP DP  RH WIND       PRES   REMARKS
LA GUARDIA NY  MOCLDY    71  58  63 S10       30.14S
RALEIGH NC     FAIR      82  68  62 S5        30.08S
ATLANTA GA     FAIR      77  67  71 CALM      30.07F
NEW ORLEANS LA MOCLDY    85  73  67 S5        30.05S HX  91
OKLAHOMA CITY  MOCLDY    92  69  47 S16G24    29.95R HX  97
ALBUQUERQUE NM PTSUNNY   93  50  23 W7        30.11S HX  90
SALT LAKE CITY PTSUNNY   89  57  33 E3        30.07F
LOS ANGELES CA FAIR      71  64  78 W15       29.94F
BOISE ID       FAIR      87  50  27 W9        30.02R
SEATTLE WA     FAIR      82  54  37 SW8       30.03F
$$

*** WEATHER ACROSS MANITOBA...SASKATCHEWAN AND ONTARIO ***
                ***ONTARIO***

CITY           SKY/WX    TMP DP  RH WIND       PRES   REMARKS
GERALDTON      MOCLDY    70  57  64 NW14G23   29.90R
THUNDER BAY    PTCLDY    75  57  53 N8        29.92R
SIOUX LOOKOUT  MOCLDY    72  59  64 W5        29.97S
TORONTO        CLOUDY    66  63  88 SE7       30.01F
BIG TROUT LK   CLEAR     68  50  52 N7        29.93R
PICKLE LAKE    PTCLDY    73  55  53 N3        29.94R
DRYDEN         MOCLDY    73  59  60 W5        29.99R
KENORA         PTCLDY    73  59  60 NW6       30.02S
$$
                *** MANITOBA***

CITY           SKY/WX    TMP DP  RH WIND       PRES   REMARKS
BRANDON        MOSUNNY   75  64  69 W6        30.08S
DAUPHIN        SUNNY     77  64  65 W6        30.05S
ISLAND LAKE    MOSUNNY   75  59  57 N2        29.98S
PILOT MOUND      N/A     75  57  53 W2          N/A
THE PAS        PTSUNNY   77  61  57 W12       30.01S
THOMPSON       MOSUNNY   77  54  44 N3        29.97S
WINNIPEG       MOSUNNY   75  64  69 NW7       30.04R
LYNN LAKE      PTSUNNY   77  55  47 NW3       29.95S
CHURCHILL      PTSUNNY   68  52  56 S6        29.90S
GILLAM         MOSUNNY   73  50  43 VRB2      29.95S
$$
                ***SASKATCHEWAN***

CITY           SKY/WX    TMP DP  RH WIND       PRES   REMARKS
ESTEVAN        MOSUNNY   79  54  41 E6        30.09F
KINDERSLEY     SUNNY     81  50  34 E10       30.02F
LLOYDMINSTER   MOSUNNY   75  54  46 SE10      30.02F
PRINCE ALBERT  CLOUDY    75  57  53 S8        30.06S
REGINA         SUNNY     82  46  28 SW3       30.07F
YORKTON        MOSUNNY   77  55  47 N2        30.09F



USA.gov is the U.S. government's official web portal to all federal, state and local government web resources and services.